カタログに戻る

COSMOS 2251 DEB

運用中LEO
NORAD 34304·DEBRIS·🇷🇺 Russia

打ち上げ Jun 16, 1993 から Plesetsk Cosmodrome

Loading…

次のパス (今後24時間)

TLE

最新Source: Space-Track

元期: Sep 14, 2026, 14:09 UTC

1 34304U 93036NA  26257.59000181  .00001507  00000-0  44862-3 0  9991
2 34304  74.0132 332.9345 0125387  43.5715  23.7304 14.39526395912641

AllMySatでCOSMOS 2251 DEBをリアルタイム追跡

Download on the App Store